| time (UTC) | temp F | wind direction | speed knots | gust knots | rain 1hr in | rain 24hr in | rain mn in | humidity % | barometer mb |
| 20260504110427 | 56 | 148 | 0.0 | 0.9 | 0.00 | 0.00 | 0.22 | 76 | 1007.1 |
| 20260504100422 | 60 | 225 | 0.0 | 0.9 | 0.00 | 0.00 | 0.22 | 63 | 1004.7 |
| 20260504081418 | 65 | 245 | 0.9 | 6.1 | 0.00 | 0.00 | 0.22 | 53 | 1002.6 |
| 20260504080418 | 67 | 256 | 2.6 | 7.0 | 0.00 | 0.00 | 0.22 | 51 | 1002.5 |
| 20260504050411 | 72 | 195 | 0.9 | 4.3 | 0.00 | 0.00 | 0.22 | 73 | 998.1 |
| 20260504045411 | 73 | 132 | 0.9 | 2.6 | 0.00 | 0.00 | 0.22 | 74 | 998.0 |
| 20260504044411 | 73 | 180 | 0.0 | 0.9 | 0.00 | 0.00 | 0.22 | 76 | 998.0 |
| 20260504043411 | 73 | 148 | 0.0 | 1.7 | 0.00 | 0.00 | 0.22 | 76 | 998.0 |
| 20260504042410 | 73 | 225 | 0.0 | 0.0 | 0.00 | 0.00 | 0.22 | 76 | 997.8 |
| 20260504041410 | 74 | 159 | 0.0 | 0.0 | 0.00 | 0.00 | 0.22 | 76 | 997.8 |
| 20260504040409 | 74 | 182 | 0.0 | 0.9 | 0.00 | 0.00 | 0.22 | 76 | 997.4 |
| 20260504035409 | 74 | 215 | 0.0 | 1.7 | 0.00 | 0.00 | 0.22 | 76 | 997.3 |
| 20260504034408 | 75 | 135 | 0.9 | 0.9 | 0.00 | 0.00 | 0.22 | 78 | 997.2 |
| 20260504033408 | 74 | 189 | 0.0 | 1.7 | 0.00 | 0.00 | 0.22 | 79 | 997.3 |
| 20260504032408 | 74 | 135 | 0.0 | 0.9 | 0.00 | 0.00 | 0.22 | 80 | 997.3 |
| 20260504031408 | 75 | 180 | 0.0 | 1.7 | 0.00 | 0.00 | 0.22 | 81 | 997.6 |
| 20260504030407 | 74 | 132 | 0.0 | 0.9 | 0.00 | 0.00 | 0.22 | 83 | 997.6 |
| 20260504025407 | 74 | 141 | 0.0 | 0.9 | 0.00 | 0.00 | 0.20 | 86 | 997.4 |
| 20260504024406 | 74 | 180 | 0.0 | 0.9 | 0.00 | 0.00 | 0.20 | 88 | 997.3 |
| 20260504023406 | 73 | 135 | 0.0 | 0.9 | 0.00 | 0.00 | 0.20 | 90 | 997.6 |
| 20260504022406 | 73 | 165 | 0.0 | 0.9 | 0.00 | 0.00 | 0.20 | 91 | 997.7 |
| 20260504021406 | 72 | 225 | 0.0 | 0.9 | 0.00 | 0.00 | 0.20 | 94 | 998.0 |
| 20260504020405 | 71 | 270 | 0.0 | 2.6 | 0.00 | 0.00 | 0.20 | 94 | 998.4 |
| 20260504015405 | 70 | 250 | 0.0 | 2.6 | 0.00 | 0.00 | 0.20 | 96 | 998.3 |
| 20260504014404 | 70 | 128 | 0.9 | 2.6 | 0.00 | 0.00 | 0.20 | 97 | 998.2 |
| 20260504013404 | 70 | 162 | 0.0 | 1.7 | 0.00 | 0.00 | 0.20 | 97 | 998.4 |
| 20260504012404 | 69 | 159 | 0.0 | 0.9 | 0.00 | 0.00 | 0.20 | 98 | 998.6 |
| 20260504011403 | 69 | 180 | 0.0 | 3.5 | 0.00 | 0.00 | 0.20 | 97 | 998.7 |
| 20260504010403 | 69 | 125 | 1.7 | 3.5 | 0.00 | 0.00 | 0.20 | 98 | 998.6 |
| 20260504005403 | 68 | 94 | 3.5 | 3.5 | 0.00 | 0.00 | 0.20 | 100 | 998.6 |
| 20260504004402 | 68 | 211 | 0.0 | 0.9 | 0.00 | 0.00 | 0.20 | 100 | 998.8 |
| 20260504003402 | 67 | 173 | 0.0 | 0.9 | 0.00 | 0.00 | 0.20 | 100 | 998.9 |
| 20260504002401 | 67 | 164 | 0.0 | 0.9 | 0.00 | 0.00 | 0.20 | 100 | 998.7 |
| 20260504001401 | 66 | 184 | 0.0 | 0.0 | 0.00 | 0.00 | 0.20 | 100 | 998.7 |
| 20260504000401 | 65 | 180 | 0.0 | 0.9 | 0.00 | 0.00 | 0.20 | 100 | 998.5 |
| 20260503235401 | 64 | 211 | 0.0 | 1.7 | 0.00 | 0.00 | 0.20 | 100 | 998.6 |
| 20260503234400 | 64 | 135 | 0.9 | 2.6 | 0.00 | 0.00 | 0.20 | 100 | 998.6 |
| 20260503233400 | 63 | 148 | 0.9 | 2.6 | 0.00 | 0.00 | 0.20 | 100 | 998.6 |
| 20260503232359 | 63 | 130 | 0.9 | 1.7 | 0.00 | 0.00 | 0.20 | 100 | 998.8 |
| 20260503231359 | 63 | 119 | 0.9 | 1.7 | 0.00 | 0.00 | 0.20 | 100 | 998.7 |
| 20260503230359 | 62 | 180 | 0.0 | 0.9 | 0.00 | 0.00 | 0.20 | 100 | 998.5 |
| 20260503225359 | 62 | 166 | 0.0 | 0.9 | 0.00 | 0.00 | 0.20 | 100 | 998.5 |
| 20260503224358 | 62 | 225 | 0.0 | 1.7 | 0.00 | 0.00 | 0.20 | 100 | 998.3 |
| 20260503223358 | 62 | 180 | 0.0 | 0.9 | 0.00 | 0.00 | 0.20 | 100 | 998.3 |
| 20260503222357 | 62 | 180 | 0.0 | 0.0 | 0.00 | 0.00 | 0.20 | 100 | 998.2 |
| 20260503221357 | 61 | 225 | 0.0 | 0.0 | 0.00 | 0.00 | 0.20 | 100 | 998.4 |
| 20260503220357 | 61 | 180 | 0.0 | 0.0 | 0.00 | 0.00 | 0.20 | 100 | 998.6 |
| 20260503215356 | 61 | 225 | 0.0 | 0.0 | 0.00 | 0.00 | 0.20 | 100 | 998.4 |
| 20260503214356 | 61 | 225 | 0.0 | 0.0 | 0.00 | 0.00 | 0.20 | 100 | 998.2 |
| 20260503213356 | 60 | 225 | 0.0 | 0.0 | 0.00 | 0.00 | 0.20 | 100 | 998.1 |
| 20260503212355 | 60 | 135 | 0.0 | 0.0 | 0.00 | 0.00 | 0.20 | 100 | 998.1 |
| 20260503211355 | 60 | 135 | 0.0 | 0.9 | 0.00 | 0.00 | 0.20 | 100 | 997.9 |
| 20260503210354 | 60 | 225 | 0.0 | 0.0 | 0.00 | 0.00 | 0.19 | 100 | 998.0 |